Rogers City, MI

8:53 AM EDT on June 24, 2017 (GMT -0400)
Presque Isle County

Weather History for KPZQ - October, 2013

Change the Weather History Date:

Thursday, October 31, 2013

  Actual Average (KAPN) Record (KAPN)
Temperature  
Mean Temperature 54 °F -  
Max Temperature 59 °F 53 °F 77 °F (1950)
Min Temperature 48 °F 31 °F 17 °F (1925)
Degree Days  
Heating Degree Days 12    
Growing Degree Days 4 (Base 50)    
Moisture  
Dew Point 52 °F    
Average Humidity 93    
Maximum Humidity 97    
Minimum Humidity 74    
Precipitation  
Precipitation 0.00 in - - ()
Sea Level Pressure  
Sea Level Pressure 29.49 in    
Wind  
Wind Speed 6 mph (SSE)    
Max Wind Speed 14 mph    
Max Gust Speed 18 mph    
Visibility 5 miles    
Events Rain    
Averages and records for this station are not official NWS values.
T = Trace of Precipitation, MM = Missing Value Source: NWS Daily Summary

Daily Weather History Graph

Daily Weather History Graph

Search for Another Location

Airport or City:

Trip Planner

Search our weather history database for the weather conditions in past years. The results will help you decide how hot, cold, wet, or windy it might be!

Date:

Astronomy

Oct. 31, 2013 Rise Set
Actual Time 8:13 AM EDT 6:23 PM EDT
Civil Twilight 7:42 AM EDT 6:54 PM EDT
Nautical Twilight 7:07 AM EDT 7:29 PM EDT
Astronomical Twilight 6:33 AM EDT 8:03 PM EDT
Moon 4:53 AM EDT (10/31) 4:47 PM EDT (10/31)
Length of Visible Light 11h 11m
Length of Day
10h 10m
Waning Crescent, 10% of the Moon is Illuminated
Oct 31
Waning Crescent
Nov 3
New
Nov 10
First Quarter
Nov 17
Full
Nov 25
Last Quarter

Hourly Weather History & Observations

Time (EDT) Temp. Dew Point Humidity Pressure Visibility Wind Dir Wind Speed Gust Speed Precip Events Conditions
12:15 AM 50.7 °F 43.7 °F 77% 29.88 in 7.0 mi SSE 9.2 mph - N/A   Overcast
12:34 AM 51.1 °F 43.7 °F 76% 29.87 in 10.0 mi South 10.4 mph 17.3 mph N/A   Overcast
12:55 AM 51.3 °F 43.3 °F 74% 29.86 in 10.0 mi SSE 10.4 mph - N/A   Mostly Cloudy
1:14 AM 51.4 °F 43.7 °F 75% 29.84 in 10.0 mi SSE 10.4 mph 16.1 mph N/A   Overcast
1:35 AM 50.5 °F 44.6 °F 80% 29.83 in 5.0 mi SSE 10.4 mph - N/A Rain Rain
1:55 AM 49.3 °F 45.5 °F 87% 29.82 in 5.0 mi SSE 8.1 mph - N/A Rain Rain
2:14 AM 49.1 °F 45.5 °F 87% 29.80 in 5.0 mi SSE 9.2 mph - N/A Rain Rain
2:35 AM 48.6 °F 45.9 °F 90% 29.80 in 3.0 mi South 10.4 mph 16.1 mph N/A Rain Rain
2:55 AM 48.7 °F 46.4 °F 92% 29.78 in 5.0 mi South 10.4 mph - N/A Rain Rain
3:15 AM 48.7 °F 46.4 °F 92% 29.77 in 5.0 mi South 9.2 mph - N/A Rain Light Rain
3:35 AM 49.1 °F 46.6 °F 91% 29.74 in 5.0 mi South 13.8 mph 18.4 mph N/A   Overcast
3:55 AM 49.1 °F 46.8 °F 92% 29.72 in 5.0 mi South 12.7 mph - N/A   Overcast
4:15 AM 49.3 °F 47.3 °F 93% 29.72 in 5.0 mi South 13.8 mph - N/A   Overcast
4:35 AM 49.5 °F 47.5 °F 93% 29.72 in 5.0 mi SSW 8.1 mph - N/A   Overcast
4:55 AM 50.0 °F 47.7 °F 92% 29.72 in 4.0 mi Calm Calm - N/A   Overcast
5:15 AM 50.0 °F 47.8 °F 92% 29.71 in 4.0 mi South 8.1 mph - N/A   Overcast
5:34 AM 50.2 °F 48.4 °F 94% 29.71 in 3.0 mi Calm Calm - N/A   Overcast
5:55 AM 50.0 °F 48.2 °F 94% 29.70 in 3.0 mi South 4.6 mph - N/A Rain Rain
6:15 AM 50.0 °F 48.4 °F 94% 29.69 in 2.5 mi South 4.6 mph - N/A Rain Light Rain
6:35 AM 50.4 °F 48.7 °F 94% 29.67 in 2.5 mi SSE 8.1 mph - N/A   Light Drizzle
6:55 AM 50.0 °F 48.6 °F 95% 29.66 in 3.0 mi SSE 5.8 mph - N/A   Overcast
7:15 AM 50.2 °F 48.6 °F 94% 29.65 in 3.0 mi SSE 4.6 mph - N/A   Mostly Cloudy
7:35 AM 50.0 °F 48.6 °F 95% 29.64 in 3.0 mi South 5.8 mph - N/A   Scattered Clouds
7:55 AM 50.0 °F 48.6 °F 95% 29.62 in 3.0 mi South 4.6 mph - N/A   Mostly Cloudy
8:14 AM 50.0 °F 48.6 °F 95% 29.62 in 3.0 mi South 5.8 mph - N/A   Scattered Clouds
8:35 AM 50.4 °F 48.9 °F 95% 29.62 in 3.0 mi South 5.8 mph - N/A   Scattered Clouds
8:55 AM 50.9 °F 49.3 °F 94% 29.61 in 2.5 mi SSE 6.9 mph - N/A   Mostly Cloudy
9:14 AM 50.7 °F 49.3 °F 95% 29.60 in 2.0 mi SSE 4.6 mph - N/A   Light Drizzle
9:35 AM 51.3 °F 50.0 °F 95% 29.59 in 2.0 mi SSE 5.8 mph - N/A   Mostly Cloudy
9:55 AM 51.8 °F 50.2 °F 94% 29.58 in 2.5 mi South 4.6 mph - N/A   Scattered Clouds
10:14 AM 52.2 °F 50.9 °F 95% 29.57 in 2.5 mi South 4.6 mph - N/A   Mostly Cloudy
10:35 AM 52.2 °F 50.9 °F 95% 29.57 in 2.0 mi South 4.6 mph - N/A   Overcast
10:55 AM 52.7 °F 51.3 °F 95% 29.56 in 2.0 mi SSE 3.5 mph - N/A   Overcast
11:15 AM 53.1 °F 51.8 °F 95% 29.55 in 2.5 mi South 4.6 mph - N/A   Overcast
11:35 AM 53.6 °F 52.0 °F 94% 29.54 in 3.0 mi SSE 5.8 mph - N/A   Overcast
11:54 AM 53.6 °F 52.2 °F 95% 29.54 in 3.0 mi South 4.6 mph - N/A   Overcast
12:15 PM 53.6 °F 52.3 °F 95% 29.52 in 2.0 mi SE 5.8 mph - N/A Rain Rain
12:35 PM 54.0 °F 52.7 °F 95% 29.52 in 2.5 mi Calm Calm - N/A Rain Light Rain
12:55 PM 54.1 °F 52.9 °F 95% 29.51 in 4.0 mi Calm Calm - N/A Rain Light Rain
1:15 PM 54.5 °F 53.1 °F 95% 29.49 in 5.0 mi SSE 3.5 mph - N/A   Light Drizzle
1:34 PM 54.5 °F 53.2 °F 96% 29.47 in 5.0 mi South 3.5 mph - N/A   Overcast
1:55 PM 55.4 °F 54.0 °F 95% 29.45 in 5.0 mi South 3.5 mph - N/A   Overcast
2:15 PM 55.9 °F 54.5 °F 95% 29.43 in 4.0 mi Calm Calm - N/A Rain Light Rain
2:34 PM 56.3 °F 54.9 °F 95% 29.42 in 3.0 mi South 3.5 mph - N/A Rain Light Rain
2:55 PM 56.8 °F 55.4 °F 95% 29.41 in 7.0 mi Calm Calm - N/A   Drizzle
3:15 PM 57.2 °F 55.8 °F 95% 29.39 in 7.0 mi SSE 3.5 mph - N/A   Drizzle
3:34 PM 57.7 °F 56.3 °F 95% 29.38 in 7.0 mi Calm Calm - N/A   Drizzle
3:55 PM 58.1 °F 56.7 °F 95% 29.38 in 7.0 mi Calm Calm - N/A Rain Light Rain
4:15 PM 58.1 °F 56.7 °F 95% 29.36 in 7.0 mi Calm Calm - N/A Rain Light Rain
4:35 PM 58.1 °F 56.8 °F 96% 29.35 in 7.0 mi SE 3.5 mph - N/A Rain Light Rain
4:55 PM 58.1 °F 57.0 °F 96% 29.34 in 7.0 mi SE 3.5 mph - N/A Rain Rain
5:15 PM 58.1 °F 56.8 °F 96% 29.33 in 5.0 mi ESE 3.5 mph - N/A Rain Light Rain
5:35 PM 58.1 °F 56.7 °F 95% 29.32 in 4.0 mi ESE 3.5 mph - N/A   Light Drizzle
5:55 PM 58.1 °F 57.0 °F 96% 29.31 in 4.0 mi Calm Calm - N/A Rain Light Rain
6:14 PM 58.1 °F 57.2 °F 97% 29.30 in 4.0 mi SE 3.5 mph - N/A Rain Light Rain
6:35 PM 57.7 °F 56.7 °F 96% 29.28 in 3.0 mi SE 3.5 mph - N/A Rain Light Rain
6:55 PM 58.8 °F 57.6 °F 96% 29.27 in 7.0 mi SSE 3.5 mph - N/A Rain Light Rain
7:14 PM 59.0 °F 57.9 °F 96% 29.26 in 7.0 mi SSE 5.8 mph - N/A Rain Light Rain
7:35 PM 59.0 °F 58.1 °F 97% 29.24 in 7.0 mi SE 5.8 mph - N/A Rain Light Rain
7:55 PM 58.6 °F 57.6 °F 96% 29.22 in 10.0 mi SSE 6.9 mph - N/A   Overcast
8:15 PM 58.6 °F 57.6 °F 96% 29.21 in 7.0 mi SSE 4.6 mph - N/A Rain Light Rain
8:35 PM 58.5 °F 57.4 °F 96% 29.19 in 7.0 mi SSE 3.5 mph - N/A Rain Rain
8:55 PM 58.5 °F 57.4 °F 96% 29.17 in 5.0 mi SE 3.5 mph - N/A Rain Light Rain
9:15 PM 57.9 °F 56.7 °F 96% 29.15 in 3.0 mi Calm Calm - N/A Rain Light Rain
9:35 PM 57.6 °F 56.7 °F 97% 29.13 in 1.0 mi Calm Calm - N/A Rain Rain
9:54 PM 57.7 °F 56.7 °F 96% 29.12 in 1.8 mi Calm Calm - N/A   Drizzle
10:15 PM 57.7 °F 56.8 °F 97% 29.10 in 5.0 mi Calm Calm - N/A Rain Rain
10:35 PM 57.0 °F 55.9 °F 96% 29.07 in 2.0 mi ESE 3.5 mph - N/A Rain Light Rain
10:55 PM 57.2 °F 56.3 °F 97% 29.07 in 10.0 mi SSE 4.6 mph - N/A Rain Light Rain
11:15 PM 57.2 °F 56.3 °F 97% 29.05 in 7.0 mi Calm Calm - N/A Rain Rain
11:34 PM 57.2 °F 56.3 °F 97% 29.04 in 5.0 mi Calm Calm - N/A Rain Light Rain
11:55 PM 57.2 °F 56.3 °F 97% 29.02 in 3.0 mi Calm Calm - N/A Rain Rain